Vertical_Velocity
14 14 14 15 12 6 0 -2 -2 -2 -2 -2 -1 2 5 6 3 -3 -8 -7 1 5 6 6 7 7 6 5 4 3 3 3 3 2 2 2 2 2 2 1 1 0 0 0 -0 -0 -0 -0 -0 -0 -0 -1 -0 -0 -0 0 0 -0 -0 -1 -1 -1 -0 0 -0 -0 -1 -1 -1
18 17 15 12 6 2 0 -0 0 1 1 -1 2 5 7 3 -5 -9 -9 -1 5 7 8 8 7 6 5 4 3 3 3 3 3 2 2 2 2 2 2 1 0 0 0 -0 -0 -0 0 0 0 -0 -0 -1 -0 0 0 -0 -0 -1 -1 -0 -0 0 0 0 -1 -1 -1 -1 -1
18 19 17 12 6 5 7 8 10 12 13 8 7 6 3 -4 -10 -9 -4 4 7 8 8 6 5 4 3 3 2 2 2 3 3 2 2 2 2 2 1 1 0 -0 -0 -1 -0 -0 0 1 0 0 -0 0 1 1 0 -0 -1 -0 0 1 1 0 -0 -1 -2 -2 -2 -1 -0
8 10 12 12 10 11 13 16 21 24 23 15 6 0 -3 -6 -6 -1 4 7 7 6 5 4 3 3 2 2 2 2 2 2 2 1 2 2 2 1 1 0 -0 -1 -1 -1 -0 -0 0 0 0 0 0 1 1 1 0 -0 1 1 2 1 0 -1 -2 -3 -3 -2 -1 0 0
1 1 2 4 8 9 11 15 23 26 20 6 -6 -6 -0 6 7 9 9 6 4 3 3 2 2 2 1 1 1 1 1 1 0 0 1 2 2 1 1 0 -1 -1 -1 -1 -1 -0 -0 -0 -0 -0 0 1 0 0 0 2 2 2 1 -1 -1 -1 -2 -1 -0 0 0 -0 -1
-0 -1 -1 0 3 4 4 4 15 18 11 -7 -13 -5 9 18 16 14 11 5 3 2 1 0 0 0 0 -0 -0 -0 -1 -1 -1 0 1 2 1 0 0 -0 -1 -1 -1 -1 -1 -0 -0 -0 -0 -0 0 0 -1 -0 1 3 2 0 -1 -2 -2 -2 -0 1 3 2 1 -1 -2
-2 -1 -1 -1 -1 1 2 -0 6 9 6 -9 -11 -3 7 15 15 15 14 10 4 1 -0 -1 -1 -1 -1 -0 -0 -0 -0 -0 0 1 2 1 0 -0 -0 -0 -1 -1 -1 -1 -1 -1 -0 -1 -0 0 0 -0 -1 0 2 4 1 -1 -2 -3 -3 -2 0 3 4 3 1 -1 -2
-3 -2 -2 -2 -3 1 6 9 8 10 10 5 0 -0 3 11 15 16 13 8 3 0 -0 -0 -0 0 1 1 2 2 2 2 2 2 1 -1 -1 -0 -0 -0 -0 -1 -1 -1 -1 -1 -0 -0 0 1 1 0 -0 1 3 4 2 -1 -2 -3 -2 -1 0 2 3 2 0 -1 -2
-2 -1 -1 -2 -2 3 9 14 11 13 18 22 10 4 5 13 16 14 9 3 1 1 1 1 1 2 2 2 2 2 2 2 1 -1 -2 -2 -1 -1 -0 -0 -0 -1 -1 -1 -1 -0 -0 0 1 1 1 1 1 2 3 3 1 -1 -2 -3 -2 -1 -0 1 1 0 -1 -2 -2
-1 -1 -1 -1 -1 3 7 7 6 12 19 19 5 2 8 18 19 13 6 1 1 1 1 1 2 2 2 2 2 1 1 -0 -1 -2 -2 -2 -1 -1 -0 0 0 -0 -1 -1 -0 -0 0 1 1 1 1 1 1 2 2 2 0 -1 -2 -2 -2 -1 -1 -1 -1 -1 -1 -2 -1
3 2 1 -1 -1 1 2 -0 0 6 9 5 -0 6 17 25 20 11 2 -0 0 0 1 2 2 3 2 2 1 0 -1 -1 -2 -2 -2 -2 -1 -1 0 1 1 0 0 0 1 1 1 1 2 1 1 1 1 2 2 1 0 -1 -1 -1 -1 -1 -1 -0 -0 -1 -1 -2 -2
15 13 11 8 3 2 1 0 0 1 1 1 7 16 23 24 13 4 -2 -0 0 1 1 2 2 2 2 1 0 -0 -1 -1 -1 -1 -1 -1 -1 -0 0 1 1 1 1 1 1 2 2 2 2 2 1 1 2 2 2 1 -0 -1 -1 -0 0 0 0 1 0 -0 -1 -1 -2
26 26 25 21 14 11 10 10 8 4 2 3 9 14 15 12 2 -2 -2 1 2 2 2 2 2 2 1 0 -0 -0 -1 -0 -0 -0 -1 -1 -0 0 0 1 1 1 1 2 2 3 3 3 2 2 2 1 2 2 2 1 -0 -1 -1 -0 1 1 1 1 1 0 -1 -1 -1
18 22 24 22 17 15 15 17 13 7 2 -1 2 4 4 1 -3 -2 1 3 3 2 2 1 1 1 0 0 -0 0 0 1 0 0 -0 -0 0 0 1 1 1 1 2 2 3 3 3 3 2 2 2 2 2 2 1 1 -0 -0 -0 0 1 1 2 2 1 0 -0 -1 -0
5 8 10 9 7 8 10 14 12 7 2 -2 -2 -2 -2 -4 -3 -0 3 4 4 3 3 2 1 1 1 1 2 2 2 1 0 -0 -0 -0 0 1 1 1 1 2 2 3 3 3 3 3 2 2 2 2 2 2 1 1 1 1 1 1 1 1 1 1 0 0 0 0 1
1 3 4 5 3 4 6 8 8 5 2 0 -0 -2 -4 -6 -3 1 4 6 5 4 4 3 3 4 4 5 5 4 1 -1 -1 -1 -0 -0 1 1 1 1 2 2 2 3 3 3 3 3 2 2 2 2 2 1 1 1 1 1 1 1 1 0 0 -0 -0 0 0 1 1
-1 2 6 9 9 10 9 7 6 5 3 2 1 -1 -3 -7 -3 1 4 6 5 5 5 5 6 6 6 5 3 0 -2 -3 -2 -1 -0 0 1 2 2 2 2 2 3 3 3 3 3 3 2 2 2 2 1 1 1 1 1 1 1 0 -0 -0 -0 -0 0 0 1 1 1
-0 -0 1 4 7 9 10 8 7 6 5 3 4 2 -0 -3 -3 0 3 5 5 5 5 6 7 5 2 -1 -5 -7 -7 -5 -2 -1 0 1 2 2 3 3 3 3 3 3 3 3 3 3 3 3 2 2 1 1 1 1 1 1 0 -0 -1 -0 -0 0 0 1 1 1 1
1 0 -2 -4 -4 -2 1 3 2 2 2 1 3 3 2 1 -0 1 2 3 4 6 7 7 6 2 -2 -7 -8 -8 -6 -3 -1 0 1 1 2 3 3 3 3 3 3 3 3 3 3 3 3 2 2 2 1 1 1 1 1 0 -0 -1 -0 -0 0 0 1 1 1 1 0
2 -1 -3 -5 -6 -6 -5 -5 -5 -4 -4 -3 -1 1 2 2 1 1 0 1 4 6 8 8 5 2 -1 -3 -3 -3 -2 -1 0 0 1 2 3 3 3 3 3 2 2 2 2 3 3 3 3 2 2 2 1 1 1 0 0 -0 -1 -0 0 1 1 1 0 0 0 0 -0
2 -3 -4 -2 -2 -2 -3 -4 -4 -4 -4 -4 -3 -1 0 2 1 0 -0 0 2 4 5 5 4 3 3 3 2 1 0 0 0 0 1 2 3 4 4 3 3 2 2 2 2 2 3 3 3 2 2 2 1 1 0 -0 -1 -1 -0 0 1 1 1 1 0 0 0 0 0
4 -1 -2 1 1 0 -0 -1 -2 -4 -4 -4 -4 -3 -1 0 -1 -1 -0 1 -1 -2 -3 -3 -0 2 3 3 2 2 1 1 1 1 1 2 3 4 4 3 3 2 2 2 2 3 3 3 3 3 2 2 1 1 0 -1 -1 -1 0 1 1 1 1 0 0 0 0 0 0
6 4 2 3 2 1 1 -0 -2 -4 -5 -4 -4 -4 -3 -2 -3 -4 -5 -5 -9 -14 -17 -15 -10 -7 -5 -3 -3 -1 1 2 2 2 2 3 3 4 3 3 3 2 2 2 3 3 3 3 3 3 3 2 2 1 0 -0 -0 0 1 1 1 1 1 0 -0 -0 -0 0 0
3 3 3 3 3 2 1 -0 -1 -3 -5 -5 -4 -4 -4 -5 -6 -8 -10 -12 -16 -21 -24 -22 -17 -13 -10 -8 -7 -5 -2 1 2 3 3 4 3 3 3 3 3 4 4 4 4 4 3 3 3 3 3 2 2 1 1 0 1 1 1 2 2 1 0 0 -0 -0 -0 0 0
0 1 2 2 2 2 1 0 -1 -2 -3 -4 -4 -4 -4 -4 -5 -6 -7 -9 -12 -16 -19 -18 -16 -13 -10 -7 -6 -5 -2 1 2 3 3 4 3 3 3 3 4 4 5 5 5 5 4 3 3 2 2 2 2 1 1 1 1 2 2 2 1 1 1 0 0 -0 -0 -0 -0
-1 0 1 1 1 1 2 3 2 0 -2 -3 -3 -3 -2 -1 -1 -1 -1 -2 -6 -9 -11 -11 -12 -11 -9 -6 -4 -3 -1 1 3 3 3 3 3 2 2 2 3 4 5 6 6 5 4 3 3 2 2 2 2 1 1 1 1 1 1 1 1 1 1 0 0 -0 -0 -0 -0
0 2 4 3 3 5 9 12 9 5 2 -1 -2 -2 -2 -0 2 2 1 -1 -4 -6 -8 -10 -10 -9 -7 -4 -2 -0 1 2 3 3 3 3 3 2 1 1 1 2 3 4 4 4 3 3 3 3 3 3 2 2 1 1 1 1 1 0 0 0 -0 -0 -0 -0 -1 -1 -1
1 2 4 6 8 13 17 17 9 6 3 -1 -1 -2 -3 -1 1 1 -2 -4 -6 -8 -9 -9 -7 -5 -2 0 1 2 3 3 3 4 4 3 3 2 1 0 0 1 2 2 3 3 3 3 3 3 3 3 3 2 1 1 0 0 -0 -0 -1 -1 -1 -0 -1 -1 -1 -1 -1
0 -0 1 3 7 13 17 14 4 1 1 -0 0 -1 -2 -1 1 0 -3 -5 -6 -6 -5 -3 -0 2 4 5 4 4 4 4 4 3 3 3 3 2 2 1 0 0 1 1 2 2 2 3 3 3 3 3 3 2 1 1 0 0 -0 -0 -0 -0 -0 -0 -0 -0 -0 -1 -1
3 0 -1 0 2 7 12 13 1 -2 -2 -1 -1 -1 -2 -3 -1 -1 -2 -2 -2 -1 1 3 5 6 7 6 4 4 3 1 -0 -1 -1 -1 -1 -0 1 1 1 1 1 2 2 2 3 3 3 3 3 3 2 1 1 1 1 1 1 1 0 0 0 0 1 0 -0 -1 -1
7 4 1 0 -0 2 6 12 9 4 1 -1 -2 -2 -3 -4 -3 -3 -2 -1 0 1 2 3 4 5 4 3 1 -0 -2 -3 -4 -4 -4 -4 -3 -1 1 3 4 4 3 3 3 3 3 3 3 2 2 1 1 1 1 1 1 1 1 1 1 1 1 0 0 -0 -1 -1 -1
11 8 5 1 -0 -0 2 8 11 11 9 10 3 -2 -4 -4 -4 -3 -3 -2 -2 -1 -1 -0 0 0 -0 -1 -3 -4 -6 -6 -6 -5 -4 -3 -1 1 3 5 6 6 5 4 4 4 3 3 2 1 1 0 0 -0 -0 -0 0 1 1 1 1 0 0 0 -0 -0 -0 -0 -0
9 10 9 5 2 0 1 3 5 6 9 16 14 6 -3 -5 -4 -4 -4 -4 -4 -4 -4 -4 -3 -3 -3 -4 -5 -6 -6 -6 -4 -3 -1 0 2 3 4 5 5 5 5 5 4 4 3 2 2 1 -0 -1 -1 -1 -1 -1 -0 0 1 1 0 0 0 0 0 0 0 0 1
4 7 10 10 6 3 1 1 3 3 4 7 15 13 6 -3 -5 -5 -5 -5 -5 -6 -6 -5 -4 -3 -3 -3 -2 -2 -2 -1 -0 1 2 2 3 3 4 4 3 3 4 4 4 4 3 2 1 0 -1 -1 -2 -1 -1 -1 -0 0 0 0 0 0 0 1 1 1 1 1 1
1 3 6 9 10 8 5 2 2 3 3 2 7 11 12 5 -2 -5 -6 -5 -4 -4 -3 -3 -2 -1 0 1 3 3 4 3 3 2 1 1 2 2 2 2 2 3 3 4 4 4 4 3 2 1 -0 -1 -1 -1 -1 -0 0 0 0 0 1 1 1 1 1 2 2 2 2
-0 0 2 5 8 10 9 6 3 2 2 3 4 7 10 10 5 1 -2 -3 -2 -1 0 1 2 2 3 3 4 5 5 4 3 2 1 0 1 1 2 2 2 3 3 3 4 4 4 3 2 1 0 -0 -0 -0 -0 0 0 0 1 1 1 1 1 2 2 2 2 3 3
-0 -1 -1 1 4 7 9 10 7 3 2 2 3 4 6 7 6 5 3 1 0 1 2 3 3 3 3 3 3 4 4 4 3 2 1 0 1 1 2 2 2 3 3 3 4 4 4 4 3 2 1 1 1 1 1 1 1 1 1 1 1 1 1 2 2 2 3 3 3
0 -0 -1 -1 1 3 6 9 9 7 4 2 2 2 2 3 2 2 2 1 1 1 1 3 3 3 2 2 2 2 2 2 2 2 1 1 1 1 2 2 2 2 2 3 3 3 3 3 3 2 2 2 1 1 1 1 1 1 1 1 1 1 2 2 2 3 3 3 3
1 0 -0 -1 -1 1 3 6 8 8 7 5 3 2 2 2 -0 -1 -1 -1 -1 0 1 1 1 1 1 1 1 0 -0 -0 -0 0 1 2 2 2 2 2 2 2 2 2 2 2 2 2 2 2 2 2 1 1 1 0 0 0 0 0 1 1 2 2 3 3 2 2 2
1 1 0 -0 -0 -0 1 2 4 6 8 8 7 5 3 1 -1 -2 -2 -2 -1 -0 0 1 2 2 1 -1 -1 -1 -1 -1 -1 0 1 2 2 2 2 2 2 2 2 1 1 1 1 1 1 1 1 1 1 1 1 0 0 0 0 1 1 2 2 2 2 2 2 2 2
0 1 1 1 0 0 0 1 2 3 5 7 8 8 5 2 -0 -2 -2 -2 -1 -0 1 4 7 7 5 2 -0 -1 -1 -1 -0 1 1 2 2 2 2 2 2 2 1 1 1 1 1 1 0 0 0 1 1 1 1 1 1 1 1 1 1 2 1 1 1 1 2 2 3
Height
2972 2973 2975 2977 2979 2982 2984 2987 2989 2992 2994 2997 2999 3002 3003 3005 3007 3009 3012 3014 3016 3017 3019 3021 3022 3024 3025 3027 3027 3028 3030 3031 3033 3034 3036 3037 3038 3039 3040 3042 3042 3044 3045 3046 3047 3048 3049 3050 3051 3052 3053 3054 3055 3056 3057 3058 3059 3060 3061 3062 3063 3064 3065 3066 3067 3068 3070 3071 3071
2973 2974 2976 2978 2981 2983 2985 2987 2989 2992 2994 2997 2999 3001 3003 3004 3007 3009 3012 3014 3015 3017 3018 3020 3022 3023 3024 3025 3027 3028 3029 3031 3032 3033 3035 3036 3037 3038 3039 3040 3042 3042 3044 3045 3046 3047 3048 3049 3050 3051 3052 3053 3054 3055 3056 3057 3058 3059 3060 3061 3062 3063 3064 3066 3067 3068 3069 3070 3070
2973 2975 2977 2979 2982 2984 2985 2987 2989 2992 2994 2997 2998 3000 3002 3004 3007 3009 3012 3013 3014 3016 3017 3019 3021 3022 3023 3024 3025 3027 3028 3030 3031 3032 3033 3034 3036 3037 3038 3039 3040 3041 3042 3044 3045 3046 3047 3048 3049 3050 3051 3052 3053 3054 3055 3057 3057 3058 3059 3060 3061 3062 3063 3065 3066 3067 3068 3068 3069
2972 2974 2977 2979 2982 2983 2985 2986 2989 2991 2993 2995 2997 3000 3002 3004 3007 3009 3010 3012 3013 3015 3017 3018 3020 3021 3022 3023 3025 3026 3027 3029 3030 3031 3032 3033 3034 3036 3037 3038 3039 3040 3041 3042 3044 3045 3046 3047 3048 3049 3050 3051 3052 3053 3055 3056 3057 3057 3058 3060 3061 3062 3063 3064 3065 3066 3066 3067 3068
2972 2973 2976 2978 2981 2982 2984 2986 2988 2991 2993 2994 2997 2999 3001 3004 3006 3008 3009 3011 3012 3014 3016 3017 3019 3020 3021 3022 3024 3025 3027 3028 3029 3030 3031 3032 3033 3034 3036 3037 3038 3039 3040 3042 3043 3044 3045 3047 3047 3048 3049 3050 3052 3053 3054 3055 3056 3057 3058 3060 3061 3062 3062 3062 3062 3063 3064 3066 3067
2972 2973 2975 2977 2980 2982 2984 2986 2988 2991 2992 2994 2997 2999 3001 3003 3006 3007 3008 3010 3012 3013 3015 3016 3018 3019 3020 3022 3023 3025 3026 3027 3028 3029 3029 3031 3032 3033 3035 3036 3037 3038 3039 3041 3042 3043 3044 3046 3047 3047 3048 3049 3051 3052 3053 3054 3055 3057 3058 3060 3061 3061 3061 3061 3061 3062 3063 3065 3066
2973 2974 2975 2977 2979 2982 2984 2986 2989 2991 2993 2994 2997 2999 3001 3003 3005 3007 3008 3009 3011 3013 3014 3015 3017 3018 3019 3021 3022 3023 3025 3026 3026 3027 3028 3030 3031 3033 3034 3035 3036 3037 3038 3040 3041 3042 3043 3045 3046 3047 3047 3049 3050 3051 3052 3053 3054 3056 3058 3059 3061 3061 3061 3061 3060 3061 3062 3064 3065
2975 2975 2976 2977 2979 2982 2985 2987 2989 2992 2993 2995 2997 2999 3002 3003 3005 3006 3008 3009 3011 3012 3013 3014 3015 3016 3018 3019 3021 3022 3023 3024 3025 3026 3028 3029 3031 3032 3033 3034 3035 3037 3038 3039 3040 3042 3043 3044 3045 3046 3047 3048 3049 3050 3051 3052 3053 3055 3057 3059 3060 3061 3061 3061 3061 3062 3062 3064 3064
2976 2977 2977 2978 2980 2982 2985 2987 2989 2991 2994 2996 2998 3000 3002 3003 3005 3006 3007 3009 3010 3011 3012 3012 3014 3015 3017 3018 3020 3021 3022 3023 3024 3026 3028 3029 3031 3031 3032 3033 3034 3036 3037 3038 3040 3041 3042 3043 3044 3045 3046 3047 3049 3050 3051 3051 3052 3054 3056 3058 3060 3060 3061 3061 3061 3062 3063 3063 3064
2977 2977 2978 2979 2981 2982 2985 2987 2989 2991 2993 2995 2997 2999 3001 3002 3004 3006 3007 3007 3008 3009 3010 3011 3013 3014 3016 3017 3019 3020 3022 3023 3025 3026 3028 3029 3030 3031 3031 3032 3034 3035 3036 3038 3039 3040 3041 3042 3043 3044 3045 3047 3048 3049 3050 3051 3052 3053 3055 3057 3058 3059 3060 3060 3061 3062 3062 3063 3063
2978 2979 2980 2981 2982 2983 2985 2987 2989 2991 2992 2994 2997 2999 3001 3002 3003 3004 3005 3006 3007 3007 3009 3010 3012 3013 3015 3017 3018 3020 3021 3023 3024 3026 3027 3028 3029 3030 3031 3032 3033 3034 3036 3037 3038 3039 3040 3041 3042 3043 3044 3046 3047 3048 3049 3050 3051 3052 3054 3056 3057 3057 3058 3059 3060 3061 3062 3062 3062
2980 2981 2982 2983 2983 2984 2986 2987 2989 2991 2992 2994 2996 2998 2999 3000 3001 3002 3003 3004 3005 3007 3008 3009 3011 3013 3014 3016 3018 3019 3021 3022 3024 3025 3026 3027 3028 3029 3030 3031 3032 3033 3035 3036 3037 3039 3040 3041 3042 3042 3044 3045 3046 3047 3048 3049 3050 3052 3053 3054 3055 3056 3057 3058 3059 3060 3061 3061 3062
2982 2982 2984 2985 2985 2986 2987 2988 2989 2991 2992 2993 2995 2996 2997 2998 2999 3001 3002 3003 3005 3006 3007 3009 3010 3012 3014 3016 3017 3019 3021 3022 3023 3024 3025 3026 3027 3028 3029 3030 3031 3032 3034 3035 3037 3038 3039 3040 3041 3042 3043 3044 3045 3046 3047 3048 3050 3051 3052 3053 3054 3055 3056 3057 3058 3059 3059 3060 3061
2981 2982 2983 2984 2985 2986 2987 2988 2989 2990 2991 2992 2993 2994 2995 2997 2998 3001 3002 3003 3004 3005 3007 3008 3010 3012 3013 3015 3017 3019 3020 3021 3022 3023 3024 3025 3026 3027 3028 3029 3030 3032 3033 3034 3036 3037 3038 3039 3040 3041 3042 3044 3045 3046 3047 3048 3049 3051 3052 3052 3053 3054 3055 3056 3057 3058 3058 3059 3060
2980 2981 2982 2982 2983 2985 2986 2987 2988 2989 2990 2991 2992 2993 2994 2996 2998 3000 3002 3002 3003 3005 3006 3008 3010 3012 3013 3015 3017 3018 3019 3021 3022 3022 3023 3024 3025 3026 3027 3028 3030 3031 3032 3034 3035 3037 3037 3039 3040 3041 3042 3043 3044 3045 3046 3047 3049 3050 3051 3051 3052 3053 3054 3055 3056 3057 3057 3058 3059
2981 2982 2982 2982 2983 2984 2985 2987 2987 2988 2989 2990 2991 2992 2994 2996 2998 3000 3001 3002 3003 3004 3006 3008 3009 3011 3013 3014 3016 3017 3019 3020 3021 3022 3022 3023 3025 3026 3027 3028 3029 3031 3032 3033 3035 3036 3037 3038 3039 3040 3041 3042 3043 3045 3046 3047 3048 3049 3050 3050 3051 3052 3053 3054 3055 3056 3057 3057 3057
2981 2982 2984 2985 2985 2986 2986 2987 2987 2988 2989 2990 2992 2993 2995 2996 2998 3000 3001 3002 3003 3004 3006 3007 3009 3011 3012 3014 3016 3017 3019 3020 3021 3021 3022 3023 3024 3025 3026 3027 3029 3030 3031 3033 3034 3035 3037 3037 3038 3040 3041 3042 3043 3044 3045 3046 3047 3048 3048 3049 3050 3051 3052 3053 3054 3055 3055 3056 3057
2981 2982 2983 2985 2986 2987 2987 2987 2987 2988 2989 2990 2992 2993 2995 2997 2998 3000 3001 3002 3003 3004 3006 3007 3009 3011 3012 3014 3016 3018 3019 3020 3020 3021 3021 3022 3023 3024 3026 3027 3028 3030 3031 3032 3033 3035 3036 3037 3038 3039 3040 3041 3042 3043 3044 3045 3046 3047 3048 3048 3049 3051 3052 3052 3053 3054 3054 3055 3056
2981 2982 2982 2982 2983 2985 2985 2985 2986 2987 2988 2989 2991 2992 2994 2996 2997 2999 3000 3002 3003 3003 3005 3006 3008 3011 3012 3014 3016 3018 3019 3019 3020 3020 3021 3022 3023 3024 3025 3027 3028 3029 3030 3032 3033 3034 3035 3036 3037 3038 3039 3040 3042 3042 3043 3044 3045 3046 3047 3048 3049 3050 3051 3052 3052 3053 3053 3054 3055
2982 2982 2982 2982 2982 2983 2983 2984 2984 2985 2987 2988 2989 2991 2992 2994 2995 2997 2998 2999 3001 3002 3004 3006 3008 3010 3012 3014 3016 3017 3018 3018 3019 3019 3020 3021 3022 3023 3025 3026 3027 3028 3030 3031 3032 3033 3034 3036 3037 3037 3039 3040 3041 3042 3043 3044 3045 3046 3047 3047 3048 3049 3050 3051 3052 3052 3053 3053 3054
2983 2982 2982 2983 2983 2983 2983 2984 2985 2986 2987 2988 2989 2991 2992 2992 2993 2994 2996 2997 2998 3000 3002 3004 3007 3009 3011 3013 3015 3016 3017 3017 3018 3019 3020 3021 3022 3023 3024 3026 3027 3028 3029 3031 3032 3033 3034 3035 3036 3037 3038 3039 3040 3041 3042 3043 3044 3045 3046 3047 3048 3049 3049 3050 3051 3051 3052 3052 3053
2983 2983 2983 2984 2984 2985 2985 2986 2987 2987 2988 2989 2991 2992 2992 2992 2993 2993 2995 2997 2998 2999 3000 3002 3004 3007 3009 3011 3013 3015 3016 3017 3018 3018 3019 3020 3022 3023 3024 3025 3026 3027 3029 3030 3031 3032 3033 3034 3035 3036 3037 3038 3039 3040 3041 3042 3043 3044 3045 3046 3047 3048 3048 3049 3050 3050 3051 3052 3052
2984 2984 2984 2985 2985 2986 2987 2987 2988 2989 2990 2991 2992 2993 2994 2994 2994 2995 2995 2996 2997 2998 2999 3001 3003 3005 3007 3009 3012 3013 3015 3017 3017 3018 3019 3020 3021 3022 3024 3025 3026 3027 3028 3030 3031 3032 3033 3034 3035 3036 3037 3037 3038 3039 3041 3042 3042 3043 3044 3045 3046 3047 3047 3048 3049 3049 3050 3051 3051
2984 2984 2985 2985 2986 2986 2987 2988 2989 2990 2991 2992 2993 2994 2995 2996 2996 2997 2997 2998 2999 3000 3001 3002 3004 3005 3007 3008 3010 3012 3014 3016 3017 3018 3019 3020 3021 3022 3023 3024 3026 3027 3028 3029 3031 3032 3032 3033 3034 3035 3036 3037 3038 3039 3040 3041 3042 3042 3043 3044 3045 3046 3047 3047 3048 3049 3049 3050 3050
2984 2984 2985 2985 2986 2986 2987 2988 2989 2990 2991 2992 2993 2994 2995 2996 2997 2998 2999 3000 3001 3002 3003 3004 3005 3006 3007 3008 3010 3012 3014 3016 3017 3017 3018 3019 3020 3021 3022 3024 3025 3027 3028 3029 3030 3031 3032 3033 3034 3035 3036 3037 3037 3038 3039 3040 3041 3042 3042 3043 3044 3045 3045 3046 3047 3047 3048 3048 3049
2984 2984 2985 2985 2985 2986 2987 2988 2988 2989 2990 2991 2992 2993 2994 2996 2997 2998 2999 3001 3002 3003 3004 3005 3006 3006 3007 3008 3010 3012 3014 3015 3016 3017 3018 3019 3020 3021 3022 3023 3025 3026 3027 3029 3030 3031 3031 3032 3033 3034 3035 3036 3036 3037 3038 3039 3040 3041 3041 3042 3043 3043 3044 3045 3046 3047 3047 3047 3048
2984 2985 2985 2985 2986 2987 2987 2988 2988 2989 2989 2990 2991 2992 2993 2995 2996 2998 2999 3000 3001 3002 3003 3004 3005 3007 3008 3009 3011 3012 3014 3015 3016 3017 3017 3018 3019 3021 3022 3023 3024 3026 3027 3028 3029 3030 3031 3031 3032 3033 3034 3035 3035 3036 3037 3038 3039 3039 3040 3041 3042 3042 3043 3044 3045 3045 3046 3046 3047
2984 2985 2985 2986 2987 2987 2988 2988 2988 2988 2989 2990 2990 2991 2992 2994 2995 2997 2998 2999 3001 3002 3003 3004 3006 3007 3009 3010 3011 3012 3013 3014 3015 3016 3017 3018 3019 3020 3022 3023 3024 3025 3026 3027 3028 3029 3030 3031 3031 3032 3033 3034 3034 3035 3036 3037 3037 3038 3039 3040 3041 3042 3042 3043 3043 3044 3044 3045 3045
2983 2984 2985 2985 2987 2987 2988 2987 2987 2988 2989 2989 2990 2991 2992 2993 2994 2996 2997 2999 3001 3002 3003 3005 3006 3007 3009 3010 3011 3012 3013 3014 3015 3016 3017 3018 3019 3020 3021 3022 3024 3025 3026 3026 3027 3028 3029 3030 3030 3031 3032 3032 3033 3034 3035 3035 3036 3037 3038 3039 3040 3041 3041 3042 3042 3043 3043 3044 3044
2983 2983 2984 2985 2986 2987 2987 2987 2987 2987 2988 2989 2990 2991 2992 2993 2994 2996 2997 2999 3001 3002 3003 3005 3006 3007 3009 3010 3011 3012 3012 3013 3014 3016 3017 3017 3018 3020 3021 3022 3023 3024 3025 3025 3026 3027 3028 3028 3029 3030 3031 3032 3032 3033 3033 3034 3035 3036 3037 3038 3039 3039 3040 3041 3041 3042 3042 3042 3043
2983 2983 2983 2984 2985 2986 2987 2987 2988 2988 2988 2989 2990 2991 2992 2993 2994 2996 2997 2998 3000 3002 3003 3004 3006 3007 3008 3009 3010 3011 3012 3012 3013 3014 3015 3017 3017 3019 3020 3021 3022 3022 3023 3024 3025 3026 3027 3027 3028 3029 3029 3030 3031 3032 3032 3033 3034 3035 3036 3037 3037 3038 3039 3040 3040 3040 3041 3041 3041
2982 2983 2983 2984 2984 2985 2986 2987 2988 2989 2989 2990 2990 2991 2992 2992 2994 2995 2997 2998 2999 3000 3002 3003 3004 3006 3007 3008 3009 3009 3010 3011 3012 3013 3014 3015 3017 3018 3019 3019 3020 3021 3022 3023 3024 3025 3025 3026 3027 3027 3028 3029 3029 3030 3031 3032 3033 3034 3035 3036 3036 3037 3038 3038 3039 3039 3039 3040 3040
2981 2982 2983 2983 2984 2984 2985 2986 2987 2988 2989 2990 2990 2991 2991 2992 2993 2995 2996 2997 2998 3000 3001 3002 3003 3005 3006 3007 3008 3009 3009 3010 3011 3012 3013 3015 3015 3016 3017 3018 3019 3020 3021 3022 3022 3023 3024 3025 3026 3026 3027 3027 3028 3029 3030 3031 3032 3033 3033 3034 3035 3036 3036 3037 3037 3038 3038 3038 3038
2980 2981 2982 2982 2983 2983 2984 2985 2986 2987 2988 2989 2990 2991 2991 2992 2993 2994 2996 2997 2998 2999 3000 3001 3002 3004 3005 3006 3007 3008 3009 3010 3011 3012 3012 3013 3014 3015 3016 3017 3018 3019 3020 3021 3022 3022 3023 3024 3024 3025 3026 3026 3027 3028 3029 3030 3031 3032 3032 3033 3034 3034 3035 3036 3036 3036 3037 3037 3037
2979 2980 2980 2981 2982 2982 2983 2984 2985 2986 2986 2987 2988 2990 2991 2991 2992 2993 2995 2996 2997 2998 2999 3000 3001 3002 3003 3004 3006 3007 3008 3009 3009 3010 3011 3012 3013 3014 3015 3016 3017 3018 3019 3020 3021 3021 3022 3023 3023 3024 3025 3025 3026 3027 3028 3028 3029 3030 3031 3032 3032 3033 3034 3034 3035 3035 3035 3036 3036
2978 2978 2979 2980 2980 2981 2982 2982 2983 2984 2985 2986 2987 2988 2989 2990 2992 2993 2994 2995 2996 2997 2998 2999 3000 3001 3002 3003 3004 3005 3006 3007 3008 3009 3010 3011 3012 3012 3014 3015 3016 3017 3017 3018 3019 3020 3021 3022 3022 3023 3023 3024 3025 3026 3026 3027 3028 3029 3029 3030 3031 3032 3032 3032 3033 3033 3034 3034 3034
2977 2977 2978 2978 2979 2980 2980 2981 2982 2983 2984 2985 2986 2986 2987 2989 2990 2992 2992 2994 2995 2996 2997 2997 2998 2999 3000 3001 3002 3003 3004 3005 3006 3007 3008 3009 3010 3011 3012 3013 3014 3015 3016 3017 3018 3019 3020 3020 3021 3022 3022 3022 3023 3024 3025 3026 3027 3027 3028 3029 3029 3030 3031 3031 3032 3032 3032 3032 3032
2976 2976 2977 2977 2977 2978 2979 2980 2980 2981 2982 2983 2984 2985 2986 2987 2988 2990 2991 2992 2993 2994 2995 2996 2997 2997 2998 2999 3000 3001 3002 3003 3005 3006 3007 3008 3009 3010 3011 3012 3013 3014 3015 3016 3017 3017 3018 3019 3019 3020 3021 3021 3022 3022 3023 3024 3025 3026 3026 3027 3028 3028 3029 3029 3030 3030 3030 3031 3031
2974 2975 2975 2976 2976 2977 2977 2978 2979 2979 2980 2982 2982 2984 2985 2986 2987 2988 2989 2990 2991 2992 2993 2994 2995 2996 2997 2998 2998 2999 3001 3002 3003 3004 3005 3006 3007 3009 3010 3011 3012 3012 3013 3014 3015 3016 3016 3017 3018 3018 3019 3020 3020 3021 3022 3022 3023 3024 3025 3025 3026 3027 3027 3027 3028 3028 3028 3029 3029
2973 2973 2974 2974 2975 2976 2976 2977 2977 2978 2978 2979 2980 2982 2983 2984 2985 2986 2987 2988 2989 2991 2992 2993 2994 2995 2996 2996 2997 2998 2999 3000 3001 3002 3003 3004 3006 3007 3008 3009 3010 3011 3012 3013 3013 3014 3015 3015 3016 3017 3017 3018 3019 3019 3020 3021 3022 3022 3023 3023 3024 3025 3025 3026 3026 3026 3027 3027 3027
2971 2972 2972 2973 2973 2974 2975 2975 2976 2976 2977 2977 2978 2979 2981 2982 2983 2984 2985 2987 2988 2989 2990 2991 2992 2993 2994 2995 2995 2996 2997 2998 2999 3000 3001 3002 3003 3005 3006 3007 3008 3009 3010 3011 3012 3012 3013 3014 3015 3015 3016 3017 3017 3018 3019 3019 3020 3021 3021 3022 3022 3023 3023 3023 3024 3024 3024 3025 3025